Regional Weather Roundup
Issued by NWS Kansas City/Pleasant Hill, MO

Home | Current Version | Previous Version | Graphics & Text | Print | Product List | Glossary Off
Versions: 1 2 3 4 5 6 7 8 9 10 11 12 13 14 15 16 17 18 19 20 21 22 23 24 25 26 27 28 29 30 31 32 33 34 35 36 37 38 39 40 41 42 43 44 45 46 47 48 49 50

000
ASUS43 KEAX 280510
RWREAX

WEATHER ROUNDUP FOR EASTERN KANSAS AND NORTHWEST MISSOURI
NATIONAL WEATHER SERVICE KANSAS CITY/PLEASANT HILL MO
1200 AM CDT FRI AUG 28 2015

KSZ040-057-103>105-MOZ028-029-037-043-280600-
...KANSAS CITY METROPOLITAN AREA...

CITY           SKY/WX    TMP DP  RH WIND       PRES   REMARKS
K.C. INTL      CLOUDY    70  64  81 S7        30.00R
K.C. DOWNTOWN  CLOUDY    72  66  81 S3        29.99R
LEES SUMMIT    CLOUDY    70  64  81 VRB6      30.00F
OLATHE - IXD   CLOUDY    69  66  90 S8        30.00S
OLATHE - OJC   CLOUDY    68  66  93 S9        29.99R
LAWRENCE       CLOUDY    70  66  87 SE7       29.98S

$$

MOZ001>008-011>017-020>025-030>033-038>040-044>046-053-054-280600-
...NORTHERN AND CENTRAL MISSOURI...

CITY           SKY/WX    TMP DP  RH WIND       PRES   REMARKS
ST. JOSEPH     CLOUDY    70  65  84 SE9       29.97S
MOSBY          CLOUDY    68  64  88 E3        30.00R
WHITEMAN AFB   CLEAR     67  62  85 S8        30.01F
CLINTON          N/A     70  66  88 SE7       30.02F FOG
SEDALIA        PTCLDY    65  60  84 SE7       30.05S
WARSAW         NOT AVBL
CHILLICOTHE      N/A     67  62  84 SE6       30.03F
KIRKSVILLE     PTCLDY    62  58  86 SE7       30.08S

$$

MOZ041-047>049-056>058-063>065-088>090-097-280600-
...EASTERN AND SOUTHERN MISSOURI...

CITY           SKY/WX    TMP DP  RH WIND       PRES   REMARKS
ST. LOUIS INTL PTCLDY    68  57  68 CALM      30.10R
SPIRIT OF STL  CLEAR     61  60  97 CALM      30.08S
COLUMBIA       CLEAR     64  61  90 SE7       30.06F
JEFFERSON CITY CLEAR     66  60  81 E9        30.06S
ROLLA          CLEAR     63  60  90 SE8       30.07F
OSAGE BEACH    CLEAR     64  57  77 SE5       30.06F
SPRINGFIELD    PTCLDY    68  60  75 SE13      30.05F
BRANSON        CLOUDY    66  61  82 SE5       30.09F
JOPLIN         PTCLDY    70  64  81 SE8       30.02F
WEST PLAINS    CLEAR     63  57  81 CALM      30.12S

$$

IAZ060-094-KSZ022-034>040-054-083-096-NEZ052-066-093-280600-
...KANSAS...SOUTHEAST NEBRASKA AND IOWA...

CITY           SKY/WX    TMP DP  RH WIND       PRES   REMARKS
TOPEKA         CLOUDY    71  67  87 SE10      29.96F
MANHATTAN      LGT RAIN  73  69  87 S7        29.92F
EMPORIA        CLOUDY    71  61  70 S12       29.96F
CHANUTE        CLOUDY    68  63  84 SE8       29.98F
WICHITA        CLOUDY    74  66  76 SW8       29.97R
OMAHA          LGT RAIN  70  65  84 SE7       29.94R
LINCOLN        LGT RAIN  71  66  84 E12       29.85R
FALLS CITY     CLOUDY    70  66  87 SE13      29.92F
LAMONI         PTCLDY    66  60  81 SE8       30.02F
DES MOINES     MOCLDY    67  60  78 SE13      30.02F

$$




USA.gov is the U.S. government's official web portal to all federal, state and local government web resources and services.